Regional Weather Roundup
Issued by NWS

Home | Current Version | Previous Version | Text Only | Print | Product List | Glossary On
Versions: 1 2 3 4 5 6 7 8 9 10 11 12 13 14 15 16 17 18 19 20 21 22 23 24 25 26 27 28 29 30 31 32 33 34 35 36 37 38 39 40 41 42 43 44 45 46 47 48 49 50
000
ASUS44 KLUB 250110
RWRTX
WEST TEXAS WEATHER ROUNDUP
NATIONAL WEATHER SERVICE LUBBOCK TX
800 PM CDT TUE MAY 24 2016

NOTE: "FAIR" INDICATES FEW OR NO CLOUDS BELOW 12,000 FEET WITH NO
SIGNIFICANT WEATHER AND/OR OBSTRUCTIONS TO VISIBILITY.

TXZ004-006>008-010-012-014-016-OKZ002-250200-
TEXAS PANHANDLE/OKLAHOMA PANHANDLE

CITY           SKY/WX    TMP DP  RH WIND       PRES   REMARKS
AMARILLO       CLEAR     80  63  55 SE25G35   29.84R
BORGER         CLEAR     82  65  56 S21G36    29.79R
CANADIAN       CLOUDY    81  68  64 S10       29.79S
DALHART        CLEAR     80  34  19 SW14      29.80F
DUMAS          CLEAR     84  31  15 S14       29.79S
GUYMON         CLEAR     81  60  48 S22G30    29.73S
HEREFORD       CLEAR     89  24   9 SW10G17   29.84S
PAMPA          CLEAR     80  67  64 S21G29    29.84R
PERRYTON       CLOUDY    80  56  43 S24G44    29.77F
$$

TXZ026-029-035-045-048-250200-
SOUTHERN PANHANDLE/SOUTH PLAINS/ROLLING PLAINS

CITY           SKY/WX    TMP DP  RH WIND       PRES   REMARKS
CHILDRESS      CLEAR     82  69  64 S21       29.81R
SEMINOLE       PTCLDY    87  31  13 SW6       29.90R
LUBBOCK        MOCLDY    86  24  10 SW17G25   29.87R
PLAINVIEW      CLEAR     82  61  48 S16G29    29.84R
SNYDER           N/A     84  67  55 SE16G23   29.87R
$$

TXZ052-054-060>062-072-078-127-140-154-169-250200-
PERMIAN BASIN/CONCHO VALLEY/BIG COUNTRY/EDWARDS PLATEAU

CITY           SKY/WX    TMP DP  RH WIND       PRES   REMARKS
ABILENE        CLOUDY    79  72  79 S20G28    29.87F
BIG SPRING     CLOUDY    82  56  42 SE22      29.88R
BROWNWOOD      CLOUDY    77  72  83 SE10      29.91F
JUNCTION       CLOUDY    80  72  76 SE10      29.93R
MIDLAND        CLOUDY    90  53  28 S20G30    29.87R
ODESSA         CLOUDY    89  55  31 S22G30    29.88R
SAN ANGELO     CLOUDY    82  69  64 S7        29.89R
SONORA         PTCLDY    82  70  65 SE10      29.97R
SWEETWATER     CLOUDY    81  67  62 SE13      29.90S
WINK           CLOUDY    90  24   9 MISG      29.84R
$$

TXZ055-058-074-075-080-082-250200-
FAR WEST/SOUTHWEST MOUNTAINS/TRANS PECOS

CITY           SKY/WX    TMP DP  RH WIND       PRES   REMARKS
ALPINE         CLOUDY    82  28  14 S8        30.08R
DRYDEN           N/A     87  68  52 SE18      29.89
EL PASO        MOSUNNY   88   5   4 W18G25    29.92S
FORT STOCKTON  PTCLDY    91  27  10 S14       29.89R
MARFA          CLOUDY    81  23  11 SW10      30.05F
PECOS          CLOUDY    92  16   6 SW8       29.84S
PRESIDIO       FAIR      91  21   8 S5        29.90S
$$

TXZ014-016-019-021>030-083-250200
TEXAS TECH WEST TEXAS MESONET/TEXAS PANHANDLE/NORTHERN SOUTH PLAINS

CITY           SKY/WX    TMP DP  RH WIND       PRES   REMARKS
ABERNATHY 5ENE   N/A     82  28  13 SW16      29.89S
AMARILLO 9NNE    N/A     81  61  51 SE23G30   29.81S
AMARILLO 7SSE    N/A     85  27  12 S12       29.85R
AMHERST 1NE      N/A     84  25  11 S17G23    29.88R
BOOTLEG 11WNW    N/A     82  26  12 S15       29.90R
CANADIAN 6E      N/A     80  67  65 SE12      29.79F
CAPROCK CYN SP   N/A     81  69  67 SE13      29.85R
CHILDRESS 2NNE   N/A     81  68  65 S21       29.82S
CLARENDON 2WSW LGT RAIN  76  68  77 SE18      29.85S
CLAUDE 12SW      N/A     77  66  68 SE10      29.86R
DIMMITT 2NE      N/A     85  26  11 S14       29.87S
FLOYDADA 2NNE    N/A     79  67  65 S15       29.87R
FRIONA 2NE       N/A     85  24  10 SW14G22   29.87S
GOODLETT 3W      N/A     83  68  61 S13G21    29.81R
HART 3N          N/A     87  25  10 SW16      29.87R
HEREFORD 2NW     N/A     87  21   9 SW13      29.87S
MCLEAN 1E        N/A     78  67  68 SE12G21   29.84R
MEMPHIS 1NE      N/A     80  69  68 SE9       29.83R
MULESHOE 2SSW    N/A     86  27  11 SW9       29.87S
OLTON 6S         N/A     84  26  12 S17       29.87R
PALO DURO SP     N/A     84  61  45 S21G28    29.85R
PAMPA 2E         N/A     78  67  67 SE20      29.84S
PLAINVIEW 1S     N/A     83  63  51 S20G26    29.86R
SILVERTON 7ESE   N/A     79  66  62 SE20G25   29.85R
TULIA 2ENE       N/A     83  60  45 S26G32    29.85R
TURKEY 2WSW      N/A     81  70  68 SE16      29.84R
UMBARGER 3NNE    N/A     87  25  10 SW15      29.85S
$$

TXZ033>036-039>041-045>048-250200
TEXAS TECH WEST TEXAS MESONET/SOUTH PLAINS

CITY           SKY/WX    TMP DP  RH WIND       PRES   REMARKS
AIKEN 3WSW       N/A     82  63  51 S23       29.88R
ANDREWS 2NE      N/A     87  43  21 S2        29.91R
BROWNFIELD 2S    N/A     83  28  13 SW6       29.90S
DENVR CTY 7WNW   N/A     84  26  12 S7        29.92S
GAIL 2ESE        N/A     85  61  44 S13       29.86R
LAMESA 2SE       N/A     85  58  39 SE10G16   29.88S
LEVELLAND 4S     N/A     86  21   9 S20       29.89S
LUBBOCK 3WNW     N/A     87  22   9 SW14G20   29.89R
MORTON 1ENE      N/A     87  18   7 S23       29.87F
ODONNELL 1N      N/A     85  56  37 SE13G21   29.89R
PLAINS 3N        N/A     85  22  10 S14G20    29.91S
RALLS 1SE        N/A     82  67  60 S15       29.88S
REESE CENTER     N/A     86  21   9 SW18      29.89R
SEAGRAVES 1SW    N/A     88  26  10 SW7       29.90S
SEMINOLE 2NNE    N/A     88  27  11 S6        29.89S
SLATON 2NE       N/A     84  61  44 S14       29.88S
SNYDER 3E        N/A     83  67  57 S17       29.87R
SUNDOWN 8SW      N/A     85  25  11 S15G22    29.90S
TAHOKA 3NNE      N/A     84  34  16 S8        29.89R
WOLFFORTH 6SSW   N/A     88  20   8 SW15      29.89S
$$

TXZ031-032-036>038-042>044-250200-
TEXAS TECH WEST TEXAS MESONET/ROLLING PLAINS

CITY           SKY/WX    TMP DP  RH WIND       PRES   REMARKS
ASPERMONT 3NE    N/A     83  70  64 S15G21    29.83S
FLUVANNA 3WNW    N/A     85  61  43 S17       29.87R
GUTHRIE 10WSW    N/A     82  70  66 SE15      29.82S
HASKELL 1NW      N/A     82  68  62 S14G22    29.83F
JAYTON 1SSE      N/A     83  70  65 SE13      29.83S
KNOX CITY 3NW    N/A     84  68  58 S17G25    29.82F
LK A HENRY 1NW   N/A     85  64  48 S13       29.84S
NORTHFIELD 1S    N/A     82  71  68 S20G26    29.82R
ODELL 4ENE       N/A     82  71  71 SE10      29.84R
PADUCAH 10SW     N/A     81  70  68 S15       29.83R
POST 1NE         N/A     85  61  44 S10G17    29.85R
RRING SPRGS 3N   N/A     80  71  73 S13G21    29.85S
SEYMOUR 3NW      N/A     82  69  65 SE16G25   29.82F
SPUR 1W          N/A     82  68  62 SE12G18   29.83S
WEINERT 2NNE     N/A     83  71  67 S15       29.83S
WHITE RVR 6NE    N/A     83  65  55 SE12      29.86R
$$

TXZ052-054-060>062-072-078-127-140-154-169-250200-
TEXAS TECH WEST TEXAS MESONET/PERMIAN BASIN/
CONCHO VALLEY/BIG COUNTRY/EDWARDS PLATEAU

CITY           SKY/WX    TMP DP  RH WIND       PRES   REMARKS
COYANOSA 2N      N/A     91  18   7 W3        29.86R
JUNCTION 1SSW    N/A     80  73  78 SE9       29.94R
MERTZON 3NNE     N/A     81  69  65 S8        29.92R
SAN ANGELO 7NW   N/A     83  65  55 S9        29.90R
STRLNG CT 4WSW   N/A     84  66  54 SE14      29.90R
ST LAWRNCE 5SW   N/A     85  59  42 S22G28    29.90R
SWEETWATR 11SW   N/A     80  68  68 SE13      29.91R
WALL 1E          N/A     82  67  60 SE9       29.91
$$

TXZ055-058-074-075-080-082-250200-
TEXAS TECH WEST TEXAS MESONET/FAR WEST/SOUTHWEST MOUNTAINS/TRANS PECOS

CITY           SKY/WX    TMP DP  RH WIND       PRES   REMARKS
PRSMN GAP BBNP   N/A     93  25   8 W3        29.91S
GUADLPE MTN NP   N/A     78  14   9 W14       30.06S
$$




USA.gov is the U.S. government's official web portal to all federal, state and local government web resources and services.